Terminal Aerodrome Forecast
Issued by NWS

Home | Current Version | Previous Version | Text Only | Print | Product List | Glossary On
Versions: 1 2 3 4 5 6 7 8 9 10 11 12 13 14 15 16 17 18 19 20 21 22
000
FTAK31 PAFA 202320
TAFAOT
TAF
PAOT 202320Z 2100/2124 33017KT P6SM SKC
     FM210600 32008KT P6SM FEW100 SCT200
     FM210700 32016KT P6SM SCT025 OVC050=

USA.gov is the U.S. government's official web portal to all federal, state and local government web resources and services.